Home   Weather   Lindlar   Past weeks

Flag for Germany Past Weather in Lindlar, North Rhine-Westphalia, Germany — Yesterday and Last 2 Weeks

54 °F

Passing clouds.

Feels Like: 51 °F
Forecast: 48 / 53 °F
Wind: 8 mph from Northwest

Location: Koeln / Bonn

Current Time: Oct 27, 2016 at 7:00:42 PM

Latest Report: Oct 27, 2016 at 6:20 PM

Visibility: N/A

Pressure: 30.51 "Hg

Humidity: 88%

Dew Point: 50 °F

Location of LindlarLocation

Past Weather in Lindlar — Graph


Lindlar Temperature Yesterday

Maximum temperature yesterday: 54 °F (at 2:20 PM)
Minimum temperature yesterday: 43 °F (at 8:50 PM)
Average temperature yesterday: 49 °F

High & Low Weather Summary for the Past Weeks

High68 °F (Oct 16, 3:50 PM)100% (Oct 15, 12:20 AM)30.51 "Hg (Oct 15, 12:20 AM)
Low36 °F (Oct 23, 2:20 AM)49% (Oct 16, 3:20 PM)29.68 "Hg (Oct 14, 6:20 PM)
Average49 °F87%30.04 "Hg
* Reported Oct 12 5:20 PM — Oct 27 5:50 PM, Lindlar, Weather by CustomWeather, © 2016

Note: Actual official high and low records may vary slightly from our data, if they occured in-between our weather recording intervals... More about our weather records


Lindlar Weather History for the Previous 24 Hours

Scroll right to see more
Time TempWeatherWind HumidityBarometerVisibility
5:50 PM
Thu, Oct 27
55 °FBroken clouds.8 mph88%30.51 "HgN/A
5:20 PM57 °FScattered clouds.3 mph77%30.51 "HgN/A
4:50 PM57 °FPartly sunny.5 mph77%30.51 "HgN/A
4:20 PM57 °FPartly sunny.5 mph77%30.51 "HgN/A
3:50 PM57 °FPartly sunny.2 mph77%30.51 "HgN/A
3:20 PM57 °FBroken clouds.1 mph77%30.51 "HgN/A
2:50 PM57 °FBroken clouds.2 mph77%30.51 "HgN/A
2:20 PM57 °FScattered clouds.3 mph72%30.51 "HgN/A
1:50 PM59 °FScattered clouds.5 mph68%30.51 "HgN/A
1:20 PM55 °FPartly sunny.5 mph77%30.51 "HgN/A
12:50 PM54 °FPartly sunny.6 mph77%30.51 "HgN/A
12:20 PM52 °FPartly sunny.6 mph88%30.51 "HgN/A
11:50 AM52 °FDrizzle. Partly sunny.6 mph82%30.51 "HgN/A
11:20 AM52 °FPartly sunny.6 mph82%30.51 "HgN/A
10:50 AM50 °FPartly sunny.5 mph88%30.51 "HgN/A
10:20 AM50 °FBroken clouds.7 mph88%30.51 "HgN/A
9:50 AM50 °FPartly sunny.8 mph88%30.51 "HgN/A
9:20 AM50 °FPartly sunny.3 mph88%30.51 "Hg5 mi
8:50 AM48 °FPartly sunny.3 mph87%30.48 "Hg4 mi
8:20 AM48 °FOvercast.1 mph87%30.48 "Hg4 mi
7:50 AM48 °FOvercast.3 mph87%30.48 "Hg4 mi
7:20 AM48 °FOvercast.3 mph87%30.48 "Hg4 mi
6:50 AM46 °FPassing clouds.5 mph93%30.48 "Hg4 mi
6:20 AM48 °FPassing clouds.6 mph87%30.45 "Hg4 mi
5:50 AM46 °FPassing clouds.5 mph93%30.45 "Hg4 mi
5:20 AM46 °FOvercast.8 mph93%30.45 "Hg4 mi
4:50 AM46 °FOvercast.7 mph93%30.45 "Hg4 mi
4:20 AM46 °FOvercast.5 mph93%30.45 "Hg4 mi
3:50 AM46 °FMostly cloudy.2 mph93%30.45 "Hg4 mi
3:20 AM46 °FPassing clouds.2 mph93%30.45 "Hg4 mi
2:50 AM46 °FPassing clouds.2 mph93%30.45 "Hg4 mi
2:20 AM46 °FPassing clouds.5 mph93%30.45 "Hg4 mi
1:50 AM46 °FPassing clouds.3 mph93%30.45 "Hg4 mi
1:20 AM45 °FPassing clouds.2 mph100%30.45 "Hg5 mi
12:20 AM46 °FPassing clouds.3 mph93%30.45 "Hg5 mi
11:50 PM
Wed, Oct 26
45 °FPassing clouds.2 mph100%30.45 "Hg5 mi
11:20 PM45 °FPassing clouds.3 mph100%30.45 "Hg5 mi
10:50 PM45 °FPassing clouds.1 mph100%30.45 "Hg5 mi
10:20 PM45 °FFog.2 mph100%30.45 "Hg5 mi
9:50 PM43 °FFog.2 mph100%30.42 "Hg5 mi
9:20 PM43 °FFog.No wind100%30.42 "Hg5 mi
8:50 PM43 °FFog.No wind100%30.42 "Hg5 mi
8:20 PM46 °FFog.3 mph93%30.42 "HgN/A
7:50 PM46 °FFog.1 mph93%30.42 "HgN/A
7:20 PM46 °FFog.1 mph93%30.39 "Hg6 mi
Weather by CustomWeather, © 2016

See weather overviewHow to use our weather pages